Tracking 23610 objects as of 19-Sep-2021
HD Live streaming from Space Station
objects crossing your sky now

STARLINK-2645

Track STARLINK-2645 now!
10-day predictions
STARLINK-2645 is classified as:


NORAD ID: 48444
Int'l Code: 2021-040S
Perigee: 553.5 km
Apogee: 555.0 km
Inclination: 53.1 °
Period: 95.6 minutes
Semi major axis: 6925 km
RCS: Unknown
Launch date: May 9, 2021
Source: United States (US)
Launch site: AIR FORCE EASTERN TEST RANGE (AFETR)
aabbcc
Your satellite tracking list
Your tracking list is empty




NASA's NSSDC Master Catalog

Two Line Element Set (TLE):
1 48444U 21040S   21262.25001157 -.00050978  00000-0 -34247-2 0  9998
2 48444  53.0543 309.9130 0001067  80.5534 185.2201 15.06436997 21866
Source of the keplerian elements: AFSPC